Wind_Speed
39 39 39 39 39 39 39 39 40 40 40 40 41 41 42 43 43 44 45 45 46 46 47 48 49 50 51 52 52 53 53 55 55 56 56 56 56 55 56 56 56 56 55 54 54 54 53 52 51 50 49 51 52 53 57 61 64 67 69 71 71 69 64 58 55 50 42 39 40 43 46 46 45 46 43 40 39 37 36 33 30 27 26 26 25 25 26 27
37 37 37 37 37 37 38 38 38 39 39 39 40 41 41 42 42 43 43 44 44 45 46 47 48 49 50 51 53 53 54 56 56 57 57 58 58 58 58 58 58 58 58 57 57 56 56 55 55 53 52 52 52 53 56 58 62 67 69 71 71 68 66 61 56 52 46 43 44 45 48 48 47 47 46 43 41 40 38 35 32 29 28 27 25 25 26 27
35 35 35 35 35 36 36 36 37 37 38 39 39 40 40 40 41 41 42 42 43 44 45 46 47 48 50 51 52 54 55 56 58 58 59 59 59 60 60 60 60 60 60 60 59 59 58 58 58 57 55 54 54 54 55 57 60 64 69 72 68 65 67 66 61 55 50 47 47 48 48 50 49 48 48 46 44 43 40 36 34 31 31 31 28 27 27 28
32 32 32 32 33 33 34 34 35 36 37 37 38 38 38 38 38 39 40 41 42 43 44 45 46 48 49 51 52 54 55 57 58 59 60 61 61 62 62 62 62 62 62 62 62 61 61 61 61 61 60 57 56 57 56 56 60 62 67 69 65 65 67 68 66 59 53 51 50 51 51 51 51 50 50 49 47 45 41 37 35 33 35 36 33 30 29 29
29 29 29 29 30 30 31 32 33 33 34 34 34 34 35 35 36 37 38 39 40 42 43 44 46 48 49 51 53 55 56 58 59 60 62 62 63 63 64 64 64 64 64 64 64 64 64 64 64 64 64 61 59 60 57 57 60 62 64 64 63 66 66 68 70 65 58 56 53 53 55 52 51 52 52 51 50 46 43 40 37 37 38 39 37 34 32 31
26 26 26 27 27 28 28 29 29 30 30 30 31 31 32 33 34 35 36 38 39 41 42 44 46 48 50 52 54 56 58 59 61 63 63 64 65 66 67 67 67 66 66 67 67 67 66 67 67 67 67 66 64 62 60 60 62 62 61 61 62 65 69 69 70 69 65 61 57 54 56 55 53 54 54 54 52 48 45 43 41 40 41 41 40 37 34 32
24 24 24 24 25 25 25 26 26 26 27 28 28 29 30 31 32 33 35 36 38 40 42 44 46 48 50 52 55 58 59 61 64 65 66 66 68 69 69 70 71 70 70 70 70 70 70 69 69 70 70 70 68 65 64 64 64 63 61 60 61 64 69 70 70 71 70 66 62 58 57 58 57 57 57 56 54 50 48 45 43 42 43 43 41 38 35 32
21 21 21 21 21 22 22 23 23 24 25 26 27 28 29 30 31 33 34 36 38 40 42 44 46 49 51 53 56 59 60 63 65 67 68 70 71 72 73 74 74 74 74 74 73 74 73 72 72 73 73 72 71 70 68 68 67 65 61 59 61 64 67 70 72 72 72 70 68 66 62 59 59 60 60 58 54 52 49 46 44 44 44 45 42 38 36 34
17 18 18 18 18 19 20 20 21 23 24 25 26 27 28 29 31 32 34 36 38 40 42 44 47 49 52 54 56 59 61 64 66 68 70 72 73 75 77 77 78 77 78 78 78 78 77 76 76 76 77 75 74 73 72 72 69 66 62 61 62 64 67 70 73 73 73 73 73 72 67 61 60 62 62 59 55 53 51 48 46 45 45 46 43 39 37 36
14 15 15 16 16 17 18 19 21 22 23 24 26 27 28 30 31 32 34 36 38 40 43 45 47 49 52 55 56 58 62 64 67 70 71 73 75 77 79 80 80 80 81 81 82 81 81 81 80 80 80 79 78 76 76 75 72 68 66 65 65 66 69 71 72 75 75 74 75 76 72 65 62 64 63 58 56 55 53 51 48 47 46 46 45 41 40 38
12 12 13 14 15 17 18 19 21 22 23 25 26 27 28 30 31 33 35 37 39 41 43 45 47 49 52 54 57 59 61 64 67 70 72 74 76 78 80 82 83 83 83 84 84 85 85 84 84 84 83 82 81 80 80 77 74 72 71 70 68 68 70 72 71 74 77 76 75 76 76 73 68 67 64 56 56 56 54 53 51 49 47 47 46 43 42 42
10 11 12 14 15 16 18 19 21 22 23 25 26 27 28 30 32 34 36 38 39 41 42 44 46 48 50 53 56 58 60 62 65 67 70 72 74 77 79 81 83 85 85 85 86 87 87 86 86 86 85 85 85 83 83 80 77 76 76 74 72 71 71 72 72 72 77 78 76 76 79 81 75 67 62 57 55 56 56 55 54 53 51 49 47 44 43 44
10 11 12 14 15 16 18 19 21 22 23 24 26 27 29 31 33 34 36 38 39 40 42 43 45 48 50 53 55 57 59 60 61 63 65 66 68 70 73 76 78 81 84 85 85 87 88 88 88 87 87 87 87 87 85 82 81 80 79 78 75 75 74 72 71 72 75 77 77 78 81 84 78 66 60 57 56 57 57 56 55 54 54 52 50 46 43 44
10 11 12 14 15 16 18 19 21 22 23 24 26 28 29 31 33 35 36 37 38 40 42 43 46 49 51 54 55 56 57 57 58 57 57 57 56 57 59 63 65 69 74 77 78 81 85 87 88 87 86 86 87 88 87 85 84 83 83 82 80 80 75 70 71 72 74 76 78 81 83 84 80 70 63 60 59 59 58 56 54 54 54 54 53 50 46 45
10 11 13 14 15 17 18 19 20 21 23 25 26 28 30 32 33 35 36 37 38 40 42 44 47 50 53 55 55 55 54 53 51 48 46 44 42 41 42 46 50 53 58 62 65 69 76 81 84 84 83 82 83 85 87 87 87 86 86 84 83 82 76 71 71 72 73 74 79 84 85 83 80 75 68 64 63 61 60 58 54 54 54 53 54 53 51 49
11 12 13 14 15 17 18 20 21 22 23 25 26 28 30 32 34 35 36 36 38 40 43 45 48 51 53 55 54 52 50 45 40 38 36 33 30 29 29 32 37 40 43 46 51 56 62 69 73 76 78 77 78 80 82 86 88 88 88 86 84 83 79 74 72 72 73 74 79 84 85 82 78 77 72 68 68 64 62 61 56 53 54 53 53 52 52 51
11 12 13 15 16 18 19 20 21 23 24 25 26 28 30 33 34 34 35 36 38 40 43 46 48 50 52 54 52 47 42 35 30 30 31 29 27 26 25 26 28 31 32 34 38 44 49 54 59 64 68 69 71 74 76 81 87 88 87 86 84 83 81 77 74 73 73 75 80 83 86 83 78 77 76 73 72 68 65 63 60 56 54 54 53 52 52 51
12 12 13 15 17 18 20 21 22 23 24 25 26 28 30 32 33 34 35 36 38 40 43 45 47 50 53 54 52 45 37 30 26 27 28 28 29 28 27 26 26 26 27 27 29 33 38 42 47 51 56 58 60 66 72 77 81 83 85 85 84 83 83 79 76 76 75 76 80 83 86 85 79 78 78 77 76 73 69 66 64 62 58 57 56 55 53 52
12 12 13 15 17 18 20 21 22 23 24 25 26 28 30 32 33 34 34 36 38 40 42 45 48 52 55 56 51 42 36 31 28 28 28 29 30 30 29 26 25 24 24 25 25 27 31 34 39 43 47 50 49 52 64 72 70 72 77 81 82 82 83 82 80 78 78 79 82 83 85 85 82 80 78 78 79 77 73 70 68 66 63 59 58 58 56 54
13 13 14 15 17 18 19 20 21 22 23 25 26 28 29 31 33 34 35 36 38 40 43 46 49 52 56 56 51 39 33 32 29 27 28 29 30 30 29 26 23 23 23 23 23 23 25 29 34 38 41 44 44 42 50 61 64 63 62 66 77 82 81 82 82 80 79 81 83 82 84 85 84 82 80 78 79 80 77 74 72 69 66 63 58 56 57 55
13 14 14 15 17 18 19 20 21 22 23 24 26 27 29 30 32 33 35 36 38 41 43 46 49 53 56 56 51 39 29 29 29 28 28 30 30 28 26 25 22 21 21 21 20 19 22 27 30 35 39 38 38 37 39 47 56 61 57 54 67 79 80 80 81 81 80 82 82 81 82 84 84 83 82 80 80 81 79 76 74 71 69 67 60 55 56 56
14 15 15 16 17 18 20 21 22 23 23 25 26 27 29 30 31 33 35 37 39 41 44 46 49 52 55 55 50 40 30 27 29 28 29 30 29 28 26 23 21 21 21 19 17 18 23 27 29 34 40 38 36 36 35 37 43 52 58 58 61 70 75 77 79 79 79 81 81 80 82 83 85 85 83 82 81 82 81 77 75 74 72 71 66 58 55 55
15 16 17 17 18 19 20 21 23 23 24 25 26 28 29 31 32 33 35 37 38 40 43 45 47 50 53 52 47 39 31 27 27 27 27 28 27 27 26 24 21 21 20 17 15 16 20 25 29 33 36 37 38 37 35 34 36 40 49 57 59 62 67 71 74 76 76 79 80 80 82 83 84 86 86 84 82 83 83 80 76 76 75 73 70 64 57 53
15 17 17 18 18 19 20 22 23 24 25 25 27 28 30 31 32 33 35 37 38 39 42 44 46 49 51 52 48 39 31 27 27 27 27 28 28 26 25 23 20 19 17 14 12 11 15 21 29 34 35 35 36 36 34 34 38 38 39 47 52 54 59 64 67 69 69 73 78 79 80 83 84 86 86 85 84 83 83 82 79 77 77 76 73 69 64 57
15 17 18 18 19 19 21 22 23 24 25 26 27 28 29 31 32 33 34 36 38 39 41 42 44 46 49 51 49 41 32 28 27 28 29 30 29 27 24 21 19 17 14 12 11 8 10 18 29 39 38 35 36 35 32 30 36 40 36 38 45 47 52 59 61 62 59 60 69 76 79 82 84 85 86 85 84 85 83 82 82 79 78 79 77 73 68 63
17 17 18 18 19 20 21 22 23 24 25 25 27 28 29 31 32 33 34 35 36 38 40 41 43 45 46 49 50 44 34 29 28 28 29 30 29 26 22 20 20 16 11 11 12 8 8 13 27 41 36 35 40 38 30 23 26 38 39 33 37 41 45 51 57 61 60 55 56 65 76 83 83 84 87 85 84 85 84 81 81 80 79 79 79 77 71 67
18 19 19 19 19 20 21 22 23 23 24 26 27 28 29 30 31 33 34 35 36 37 39 40 42 44 46 48 50 48 39 31 28 27 28 29 29 27 22 20 20 16 11 11 12 7 8 11 21 40 36 35 41 35 28 20 16 28 35 29 28 36 38 41 47 54 60 58 53 53 64 79 85 83 85 86 85 85 85 82 79 78 79 78 78 78 76 72
20 20 20 19 20 21 21 22 23 23 24 26 27 28 29 30 31 33 34 35 36 37 39 40 42 44 46 48 50 50 45 37 31 27 28 28 28 28 23 19 19 18 15 13 11 7 7 12 13 36 39 37 40 35 30 23 15 18 21 18 18 27 32 32 37 46 51 56 58 55 56 70 83 84 83 84 85 85 85 84 79 77 78 78 78 78 78 77
21 21 21 20 20 21 22 22 22 23 24 25 27 28 29 30 31 32 33 34 36 37 38 39 41 42 45 47 48 48 46 41 34 29 28 28 28 29 26 20 17 18 18 14 13 11 9 12 8 27 42 40 39 39 37 32 24 17 13 12 12 16 22 24 29 38 43 49 56 57 57 67 80 84 83 83 84 84 84 84 82 77 75 77 78 78 79 79
22 22 22 21 21 21 22 22 22 23 24 25 26 28 29 30 30 31 32 34 35 37 38 38 39 40 41 43 44 45 45 43 38 32 29 27 28 29 27 23 19 18 19 15 14 14 13 13 11 12 34 43 39 36 38 36 33 28 22 16 13 13 17 19 21 29 37 44 49 52 56 65 76 81 82 83 84 83 82 83 83 79 74 74 76 77 78 79
22 22 22 22 22 22 21 21 22 23 23 24 26 27 28 29 30 31 33 34 34 36 37 38 38 38 39 39 41 43 44 43 40 35 30 26 24 23 21 21 18 15 17 17 16 15 15 13 11 4 19 36 40 36 36 33 29 31 32 28 22 17 17 18 19 23 29 34 38 42 47 57 70 77 78 79 81 83 82 81 82 81 77 73 74 76 76 78
22 22 23 23 22 22 21 21 22 22 23 24 26 27 28 28 30 31 32 33 33 35 36 37 37 37 38 39 40 41 42 42 41 39 34 29 25 23 21 21 18 13 13 15 17 17 15 15 11 5 8 22 33 36 37 35 29 27 28 30 28 22 19 20 19 21 21 21 25 30 35 46 62 71 73 74 76 77 79 78 78 79 79 76 73 73 75 75
21 22 22 23 22 22 21 22 22 22 23 24 25 26 27 28 29 30 31 32 33 34 35 36 37 37 37 38 38 39 40 40 40 39 37 32 28 26 24 24 23 18 14 14 15 17 16 16 13 7 5 13 24 30 34 37 37 34 29 28 25 20 20 22 22 23 22 19 20 23 27 38 53 62 66 70 73 72 73 74 74 74 76 77 75 72 72 73
21 22 22 22 22 21 21 21 22 22 23 24 25 26 27 28 29 30 30 31 32 33 34 34 36 37 37 38 37 37 38 38 38 38 38 35 30 26 22 21 21 20 18 15 13 14 15 15 14 11 7 6 15 24 28 31 35 38 37 33 26 20 18 17 16 20 25 27 26 25 26 32 43 54 59 63 68 71 71 71 72 71 72 74 75 73 70 69
21 22 22 22 22 21 21 21 22 22 23 23 25 26 27 28 29 30 31 31 31 32 33 33 34 35 36 37 37 37 36 36 36 37 37 36 34 31 26 21 19 18 17 15 13 13 13 13 14 14 11 7 9 16 21 25 29 33 37 37 31 26 23 19 14 13 19 25 27 30 31 28 29 38 48 53 59 66 70 71 72 72 72 72 73 73 72 70
22 22 22 22 22 21 21 21 22 22 23 24 25 26 27 28 29 30 31 31 31 31 32 32 32 32 33 34 35 36 36 35 35 35 35 35 35 35 33 28 22 19 17 16 14 13 12 12 12 14 14 12 12 14 16 19 22 26 32 35 34 32 28 25 22 18 18 20 21 25 30 30 28 30 35 41 47 56 64 67 70 72 72 73 73 73 73 72
23 23 22 22 22 22 22 22 22 23 23 24 25 26 27 28 29 30 31 32 32 31 32 32 32 32 31 31 33 34 34 35 34 33 33 33 33 34 35 33 29 24 21 18 15 13 12 12 11 12 14 14 15 16 17 18 19 22 27 31 33 33 30 27 25 23 23 24 23 21 22 27 33 34 35 36 38 45 54 61 66 71 72 72 73 74 73 72
23 23 23 23 23 22 22 22 22 23 24 24 25 26 27 28 29 30 32 33 33 33 32 33 32 32 32 31 32 32 33 34 34 32 31 31 31 31 32 33 32 29 25 22 18 14 13 13 13 12 12 13 15 17 18 18 20 21 24 27 31 33 32 27 22 22 23 23 22 20 19 24 30 33 36 39 37 38 45 53 58 64 68 70 72 73 73 72
23 24 24 23 23 23 23 23 23 23 24 24 25 26 27 28 29 30 32 33 33 33 33 33 33 32 32 32 32 32 32 33 33 33 32 31 30 30 30 30 31 31 29 26 22 18 14 13 13 13 12 12 14 16 18 19 21 22 23 25 28 33 35 28 21 18 17 15 14 14 17 23 28 30 32 36 37 37 40 45 51 56 60 65 69 73 74 73
23 23 24 24 24 24 24 23 24 24 24 24 25 26 27 28 29 30 31 33 33 34 34 34 34 33 32 32 32 31 31 31 32 33 32 32 30 29 29 28 28 28 29 28 26 23 18 14 11 12 14 13 12 13 15 18 20 23 24 26 27 31 37 35 28 23 19 17 17 18 20 22 23 26 29 32 34 34 36 39 45 51 56 59 64 68 72 74
24 24 24 25 25 25 25 24 25 25 25 25 26 27 28 29 30 30 31 32 33 34 34 33 34 33 33 33 32 31 29 29 31 31 31 31 31 30 28 27 26 25 25 27 26 24 22 19 13 11 12 13 13 14 15 16 19 20 23 26 27 29 35 37 36 32 30 28 25 24 24 20 18 21 25 29 31 30 33 36 39 45 51 55 59 62 66 70
24 24 25 25 25 26 26 26 26 26 26 27 27 28 29 30 31 31 32 33 34 34 34 33 33 33 33 33 33 32 30 29 30 29 29 29 31 32 30 28 26 25 23 24 24 24 23 22 19 15 12 11 11 13 15 16 18 19 21 25 27 30 33 37 39 38 37 37 33 31 28 20 17 20 23 26 28 26 28 34 37 40 45 49 54 58 62 65
25 25 25 25 25 26 26 26 26 26 27 28 28 28 29 29 30 32 33 34 35 35 34 34 34 33 33 33 33 33 32 30 30 30 28 28 29 31 32 31 29 27 24 22 21 22 22 22 20 18 16 14 11 10 13 15 17 19 21 23 27 30 32 36 41 41 40 40 39 41 38 24 16 21 25 28 31 28 27 30 33 37 41 45 49 53 56 60
25 25 25 25 25 26 26 26 27 27 27 27 27 28 28 29 30 32 33 35 36 36 35 35 34 34 34 33 33 33 33 32 30 30 29 27 27 29 31 32 32 31 29 26 23 21 20 20 19 17 16 16 14 13 13 15 17 18 20 22 25 29 32 35 40 43 44 45 42 45 47 34 23 25 29 30 32 32 32 34 35 36 39 42 45 48 51 55
24 24 24 24 25 25 26 26 26 27 27 27 27 27 28 29 31 33 34 35 36 36 36 35 35 34 34 34 33 33 34 33 32 30 29 28 28 28 29 29 30 31 31 31 29 26 22 20 20 18 15 16 16 16 17 17 16 17 20 23 25 27 32 35 38 42 44 46 45 46 50 47 39 36 38 35 35 37 37 39 41 40 40 42 44 46 47 50
24 23 23 23 23 23 24 24 25 25 26 26 27 28 30 32 33 34 35 36 36 36 35 35 35 34 34 34 34 34 34 34 34 32 30 29 28 28 30 29 28 29 29 30 30 30 26 23 22 20 17 16 16 16 18 19 17 16 18 22 25 27 30 33 37 41 43 45 48 46 48 53 54 50 49 47 45 47 48 47 46 46 46 45 44 44 43 45
24 23 22 22 22 22 22 22 23 24 25 26 27 29 31 33 34 35 35 36 36 36 35 34 34 34 35 35 35 34 34 34 34 34 32 31 30 29 30 32 31 30 30 30 30 30 29 26 25 24 21 19 19 18 19 19 18 17 16 17 20 23 26 29 32 36 40 46 50 48 46 52 56 55 55 55 55 57 58 56 53 50 49 48 46 44 43 43
24 23 22 22 21 21 22 22 23 24 25 26 28 30 31 33 34 36 37 37 37 37 35 34 34 35 36 36 35 35 35 34 34 35 34 33 32 30 30 32 33 32 31 31 30 30 29 26 26 26 25 23 22 22 22 21 19 19 18 19 20 21 22 24 25 29 34 39 43 45 47 52 55 55 57 60 62 63 63 62 59 55 52 52 52 49 47 48
23 22 22 22 22 22 23 24 25 26 27 28 28 30 31 32 34 36 37 38 37 37 35 34 36 38 38 37 37 36 37 36 35 35 35 34 33 33 32 32 33 33 32 33 32 32 31 28 27 27 26 24 24 25 26 25 23 22 21 22 23 24 24 25 24 26 30 31 32 36 42 46 48 52 57 63 66 67 66 66 65 62 59 58 59 58 56 55
22 22 22 22 23 24 24 26 27 28 29 29 29 30 31 32 34 36 37 38 38 37 35 34 37 40 41 40 39 38 39 39 38 38 37 35 35 35 34 34 34 33 33 34 35 34 33 31 29 29 26 24 25 27 28 28 27 25 25 25 27 27 28 27 27 27 29 30 30 34 36 36 37 44 52 57 62 67 68 68 68 67 67 66 66 65 64 61
22 22 22 23 24 25 25 26 28 29 29 30 30 30 31 32 34 36 37 39 40 38 35 35 37 40 41 41 41 40 40 40 40 40 40 39 38 38 37 36 36 36 35 35 36 36 36 34 33 32 29 25 27 30 30 30 29 28 27 28 29 30 30 30 30 31 31 32 34 36 36 34 35 41 46 47 50 57 62 64 65 66 68 71 72 72 70 68
24 23 23 24 25 26 26 27 28 29 30 30 31 31 32 33 34 36 39 41 41 39 37 37 38 39 40 41 41 41 41 41 42 42 42 42 41 40 39 39 39 39 38 37 37 37 37 37 36 36 33 29 30 32 31 31 30 28 29 30 30 31 31 31 32 33 34 36 37 38 39 39 39 42 44 43 42 47 52 56 60 62 65 69 72 74 75 74
Wind_Direction
273 273 272 272 272 272 272 272 273 274 275 275 276 276 276 276 276 276 276 275 275 275 275 274 274 273 273 272 271 270 269 267 266 265 264 262 261 260 259 258 257 256 255 254 254 255 255 254 253 251 250 249 247 247 246 244 240 239 238 237 235 233 232 234 235 236 235 229 226 233 238 237 238 239 238 237 236 235 235 234 232 232 235 237 237 234 228 227
273 273 273 273 273 273 273 274 275 275 276 277 277 277 278 278 278 277 277 277 277 277 276 276 275 275 274 273 272 271 270 269 267 266 265 263 262 261 260 259 258 257 255 254 253 253 254 254 254 251 249 248 248 246 247 246 243 241 240 239 237 235 233 234 234 234 233 229 226 230 236 237 236 238 237 236 236 235 234 233 231 232 237 239 237 236 233 229
274 273 273 273 274 274 275 275 276 277 277 278 279 279 279 279 279 279 279 278 278 278 277 277 276 275 275 274 273 271 270 269 268 267 266 265 263 262 260 259 259 257 256 254 253 252 252 253 253 252 250 249 248 247 246 247 246 244 242 240 238 237 235 234 234 233 231 230 227 227 233 235 234 236 236 235 235 235 233 232 232 233 238 239 235 235 234 231
275 275 275 275 276 276 277 277 278 278 279 280 280 280 280 280 280 280 280 280 279 279 278 278 277 276 275 274 273 272 271 270 269 268 267 266 264 263 261 260 258 257 256 255 253 252 252 252 252 252 251 249 248 248 246 247 247 245 243 241 239 238 237 235 235 233 231 231 229 226 230 234 233 234 236 236 235 235 233 232 232 233 238 238 233 232 233 231
278 278 278 278 279 279 280 280 281 281 281 281 281 281 281 281 281 281 281 281 281 281 280 280 279 278 277 276 275 273 272 271 270 269 267 266 265 264 263 261 259 258 257 255 254 252 251 251 251 251 251 250 248 248 247 246 248 246 244 243 240 238 237 236 235 233 231 232 231 227 227 232 234 233 235 237 236 235 235 232 230 231 235 237 234 231 231 230
279 280 280 280 281 282 282 283 283 283 283 282 282 282 282 282 283 283 283 283 284 284 283 282 281 280 279 278 277 275 274 273 271 269 268 267 266 265 264 263 261 259 257 256 255 253 251 250 250 250 250 250 248 248 247 246 247 247 244 243 240 238 237 236 235 233 231 231 233 230 226 230 234 235 234 236 236 236 236 232 229 229 233 236 234 232 231 231
281 281 282 282 282 283 284 284 284 284 283 283 283 283 284 284 285 286 286 287 287 287 286 285 284 282 281 280 279 278 276 275 273 271 270 268 267 265 264 263 261 259 257 256 255 253 252 250 249 249 248 248 248 248 247 246 246 246 244 243 241 239 238 236 235 234 232 230 232 233 228 227 232 236 236 235 235 236 236 234 231 231 234 237 236 234 233 233
283 283 283 284 285 285 285 285 285 285 286 286 286 286 286 287 288 289 290 290 290 289 288 287 286 284 283 281 280 279 278 276 275 273 272 270 268 266 264 263 261 260 258 256 254 253 252 250 249 248 248 247 247 247 246 246 246 245 244 243 242 240 239 237 235 234 233 230 231 233 230 225 228 235 236 235 234 235 236 234 233 233 235 238 238 237 236 234
285 285 285 285 286 286 286 287 287 288 289 289 289 289 290 291 292 292 292 292 292 292 291 290 289 287 286 284 282 281 280 278 276 275 273 271 269 268 265 263 261 260 258 257 254 253 251 250 248 247 247 246 245 245 246 246 246 246 244 243 242 240 239 238 234 233 233 231 230 232 232 226 225 232 235 234 234 234 235 233 233 233 234 237 238 237 236 236
286 286 286 287 288 289 290 291 292 293 292 292 293 293 294 294 294 295 296 296 296 296 295 294 293 292 290 287 285 283 281 280 278 276 274 272 270 268 266 265 262 260 258 256 255 253 251 250 248 247 246 245 245 244 245 245 245 246 244 242 241 240 238 237 234 232 232 231 230 231 232 229 225 228 231 233 234 234 234 233 232 232 233 235 237 235 234 234
287 288 290 293 295 296 296 297 297 297 296 296 296 296 297 297 298 300 301 302 302 301 301 300 298 296 294 291 287 284 282 280 278 276 273 271 269 267 265 263 262 260 257 256 254 252 250 249 248 247 246 245 244 243 244 244 244 244 244 242 240 240 239 238 235 232 232 232 231 231 232 232 228 225 225 227 233 234 234 233 232 232 233 234 236 235 234 232
294 297 299 301 301 301 301 301 300 299 299 299 299 300 300 302 304 305 307 308 308 307 306 305 303 301 299 297 293 289 286 283 280 277 274 271 268 266 264 262 260 258 256 254 253 251 250 248 247 246 245 245 244 243 242 242 243 243 244 243 241 240 239 238 236 234 233 232 231 232 231 231 229 225 223 224 229 233 234 233 233 232 233 234 235 235 235 232
304 306 306 305 305 305 304 303 302 302 302 302 303 304 305 307 309 311 313 313 313 312 311 310 309 308 307 305 302 298 293 289 285 281 277 273 270 267 264 261 259 257 255 253 252 250 249 247 245 244 244 243 243 242 242 241 241 241 242 242 241 240 239 238 238 235 234 232 231 234 233 230 228 225 224 224 226 231 234 233 233 234 234 234 234 234 235 234
311 311 310 309 309 308 307 306 306 306 306 307 307 309 311 312 314 317 318 318 318 318 317 317 317 316 314 313 310 305 301 296 291 286 282 278 274 271 268 264 260 258 255 253 251 250 248 246 245 244 243 242 241 241 241 239 239 239 240 241 241 241 238 238 239 238 235 232 232 235 235 230 227 225 224 224 226 229 233 235 234 234 234 234 234 233 234 235
316 316 315 313 313 312 311 310 310 310 311 311 312 314 316 318 320 321 322 322 323 323 323 323 323 323 322 320 317 312 307 303 299 296 293 290 285 282 279 274 268 263 258 255 253 250 248 246 244 243 242 241 240 240 239 238 238 237 238 238 240 241 238 237 239 239 236 234 234 235 235 231 227 226 224 224 227 228 230 234 235 235 234 234 234 233 233 235
321 321 320 319 318 317 317 316 315 315 315 315 317 319 321 322 324 325 326 327 327 328 328 328 329 329 329 327 323 318 313 309 308 309 308 307 303 296 290 283 278 272 265 260 257 253 249 246 244 242 240 239 238 237 237 237 236 236 236 237 238 240 239 237 238 239 237 235 236 236 235 231 228 227 225 226 229 228 228 231 233 234 233 233 233 233 233 233
327 327 327 324 324 323 322 321 320 319 319 319 321 323 325 326 327 328 330 330 331 331 332 333 334 334 334 332 328 324 318 314 316 318 319 319 317 309 300 291 285 281 275 268 261 255 251 246 243 241 238 237 235 234 234 234 235 235 235 236 236 238 239 238 237 238 238 236 236 237 235 231 228 228 226 227 231 230 228 230 233 233 232 232 232 232 233 232
330 331 331 328 328 328 327 326 325 323 322 323 325 327 329 330 331 331 332 333 334 336 336 337 337 338 339 338 336 332 324 321 325 326 325 322 319 316 311 301 291 287 283 277 268 258 251 244 240 238 235 233 231 230 230 232 234 234 235 235 235 236 237 238 237 236 236 236 235 237 235 231 228 229 227 226 230 232 229 228 231 233 233 233 232 232 232 232
329 332 332 331 331 332 332 331 330 328 327 327 328 330 332 333 333 333 335 336 338 339 339 340 341 344 345 344 342 338 330 330 333 330 327 326 322 318 314 307 296 291 287 282 272 259 250 239 234 234 230 227 226 227 229 230 232 232 233 234 233 232 233 234 235 234 233 234 234 234 234 231 228 229 228 226 228 231 230 228 229 230 232 234 234 232 231 231
328 331 333 333 334 335 335 334 333 332 332 331 332 334 335 336 336 337 338 339 340 341 342 344 346 349 351 348 346 343 335 332 333 329 327 328 328 322 314 309 303 295 289 285 275 260 249 237 229 228 224 221 220 224 229 228 228 228 230 234 232 229 229 230 232 232 231 232 233 233 233 231 228 228 229 227 227 230 230 229 228 228 229 232 233 233 231 231
330 332 334 335 336 337 338 337 336 335 334 334 335 336 337 338 339 339 339 341 343 345 347 349 351 353 354 352 348 345 340 334 333 329 328 331 334 333 324 315 311 302 292 286 276 257 242 232 225 222 217 214 214 220 228 228 229 227 225 230 232 229 227 227 230 231 231 231 232 232 232 230 228 227 229 228 227 229 230 230 230 228 228 230 232 232 231 231
333 333 333 335 337 339 341 340 339 338 337 337 337 337 337 339 339 340 340 342 345 348 350 352 353 355 357 355 350 345 343 339 334 329 328 332 335 338 336 325 316 310 297 286 272 252 236 227 223 219 211 206 208 214 222 226 231 233 230 229 231 230 228 227 228 231 231 231 231 231 231 230 228 227 228 229 227 228 229 230 231 230 229 230 230 230 230 229
334 333 333 335 338 341 342 342 342 341 340 339 339 339 340 341 342 342 342 344 348 351 352 354 355 358 358 357 354 347 342 339 336 333 331 334 336 337 340 334 324 318 306 292 276 257 242 229 224 219 209 203 206 210 217 223 228 233 234 234 233 232 231 228 228 231 232 232 231 230 230 229 228 227 228 228 227 228 230 230 230 231 230 229 229 229 229 228
334 332 333 336 339 342 344 344 344 342 342 341 341 342 343 344 344 344 344 346 350 352 353 355 357 359 360 0 360 353 343 341 341 339 337 338 338 337 340 340 333 327 322 314 297 270 250 236 222 211 204 204 208 208 214 225 229 231 233 236 237 236 235 232 230 231 233 234 232 230 230 229 227 228 228 228 228 228 230 230 230 230 231 230 229 229 229 227
336 332 334 337 339 343 345 345 345 344 343 343 343 345 346 347 346 346 346 349 352 354 354 356 357 360 1 3 4 359 350 346 345 344 343 341 340 340 341 344 341 331 332 335 320 296 266 247 219 204 201 202 206 206 209 222 228 230 233 234 236 238 239 236 234 233 234 235 234 231 231 229 227 228 228 228 229 229 230 231 231 230 231 231 230 229 229 228
340 335 337 339 340 343 345 345 345 344 344 344 345 347 348 349 348 347 348 350 354 354 354 356 358 0 3 5 7 7 359 350 346 346 344 342 342 345 342 343 348 341 336 342 328 310 294 266 219 208 205 197 202 204 204 214 215 218 228 234 235 237 240 239 237 236 235 235 235 234 233 229 227 227 228 228 229 229 230 231 232 232 232 232 231 230 229 229
343 339 340 342 342 343 346 346 345 345 345 345 347 349 350 350 350 348 349 351 353 354 355 357 358 360 4 7 8 10 9 359 351 346 343 344 348 350 347 342 348 348 336 332 326 307 304 297 225 216 215 201 202 204 203 210 196 199 217 230 234 236 240 241 239 239 238 235 232 232 234 231 228 227 227 229 229 228 229 230 232 233 233 233 233 232 231 231
345 343 343 344 343 344 346 346 345 345 346 347 348 350 351 351 351 350 350 351 353 355 357 358 359 0 2 6 9 9 10 7 359 350 346 350 352 352 351 346 349 352 342 325 315 295 301 323 243 222 223 212 212 214 207 210 195 179 195 209 222 233 241 245 242 240 241 238 232 229 232 232 229 227 227 229 229 228 229 229 229 232 234 234 234 233 233 233
348 346 346 345 344 345 346 346 346 346 348 348 349 351 351 352 352 352 352 353 353 355 357 359 1 2 2 4 8 9 10 8 3 357 353 354 354 353 354 351 350 353 348 328 309 291 285 331 302 227 223 220 223 225 220 221 221 206 192 193 208 228 238 245 245 242 242 242 236 230 232 234 231 228 227 229 230 229 229 229 228 230 232 234 234 235 234 234
351 349 348 347 346 347 347 347 347 348 349 349 350 351 351 352 353 352 353 354 354 354 357 360 1 4 4 3 6 9 11 11 8 2 356 354 353 352 353 352 348 348 350 337 317 301 285 316 341 237 222 222 229 234 233 235 237 233 228 225 231 234 232 237 243 242 241 244 242 234 234 237 236 231 228 229 230 230 230 229 228 228 231 233 234 235 235 236
353 352 351 349 348 349 348 348 348 349 350 351 351 352 352 352 353 353 354 355 356 355 356 359 1 2 4 4 6 9 11 13 12 10 5 360 355 353 354 354 349 344 348 343 329 313 296 310 345 303 226 224 231 239 241 241 243 242 241 242 247 248 241 237 240 244 246 248 247 240 236 238 239 236 232 231 231 231 231 231 230 228 230 232 234 235 236 236
354 354 353 352 351 351 350 350 350 351 352 352 352 352 352 353 353 354 354 354 355 356 355 357 360 1 2 4 6 8 10 12 14 14 14 12 9 7 4 1 359 348 342 340 335 327 311 309 325 322 244 232 235 241 243 241 239 241 245 247 247 251 254 247 244 250 255 256 251 243 237 238 239 238 237 235 234 234 234 234 233 231 230 232 234 236 237 237
354 354 353 353 353 352 352 352 352 352 353 353 352 353 353 353 353 353 354 355 355 356 356 356 357 359 1 4 6 7 9 11 13 14 15 14 11 7 1 359 0 356 347 339 336 337 324 309 315 327 283 245 240 243 246 245 244 245 250 251 245 249 261 261 259 260 258 255 248 241 238 238 238 238 239 238 236 236 237 237 237 235 233 234 236 238 239 239
350 352 353 353 353 354 354 353 353 353 354 353 353 353 354 353 353 353 354 355 354 354 356 356 356 357 359 2 5 6 7 10 11 13 15 15 12 7 1 357 359 360 356 346 335 334 329 317 315 320 317 267 243 247 252 252 250 250 253 254 247 244 252 259 265 264 258 256 253 249 247 245 241 240 241 240 239 238 238 238 238 237 235 235 237 239 241 241
346 347 349 352 353 354 353 353 353 353 353 353 354 354 354 354 352 352 353 355 354 353 355 356 357 357 358 359 1 3 6 8 10 11 13 14 14 14 14 11 5 2 1 356 348 338 329 323 314 304 303 296 254 247 253 258 257 253 254 256 251 245 245 245 247 253 256 257 257 255 254 250 245 243 244 243 242 241 240 238 238 237 236 236 237 239 241 242
344 343 344 348 351 352 352 352 351 352 352 352 353 353 353 353 352 351 352 353 354 354 354 355 356 358 357 356 357 360 2 5 8 10 10 11 12 13 15 18 15 9 6 3 360 354 338 323 314 303 294 287 272 258 254 257 256 250 250 252 249 244 242 245 247 246 246 248 249 255 259 255 248 244 246 247 245 243 242 242 240 239 237 236 237 238 240 242
344 342 341 343 346 348 349 350 349 349 349 349 351 352 352 352 351 350 350 351 352 354 354 354 355 356 357 356 356 357 359 1 5 7 8 9 9 10 11 14 17 14 9 5 1 2 355 336 319 304 293 283 274 268 263 259 255 247 244 246 244 240 239 246 253 253 253 254 251 251 257 256 250 244 244 247 247 244 243 244 243 242 240 238 238 238 239 242
344 343 341 340 341 342 343 345 345 346 346 347 349 350 350 351 351 349 349 349 350 351 352 353 353 354 355 355 355 356 356 357 0 3 5 7 8 8 8 9 12 14 13 9 3 3 1 347 332 315 300 289 277 271 268 263 257 251 246 244 240 236 237 246 254 255 260 265 260 251 246 247 247 243 240 242 245 246 244 244 244 245 244 242 241 240 240 241
343 342 341 339 338 339 339 340 342 343 344 345 346 347 348 349 350 349 348 348 348 349 350 350 352 353 353 353 354 355 354 354 356 358 0 3 5 6 6 7 7 9 11 11 9 8 3 351 337 324 313 300 286 277 273 268 261 256 252 248 243 238 239 245 249 247 252 258 257 252 243 241 244 243 241 242 244 246 246 245 245 246 246 245 244 243 242 241
341 340 340 340 338 337 337 338 339 340 341 343 344 345 345 346 348 348 347 347 347 347 348 348 349 350 351 351 353 354 353 351 352 354 355 357 359 0 2 4 5 4 5 6 10 11 6 359 345 328 318 309 300 289 280 274 269 265 260 257 253 244 242 247 252 248 249 257 260 259 251 245 247 247 245 244 243 243 245 245 245 246 247 247 246 245 244 243
339 338 338 338 337 336 336 336 337 338 338 340 342 343 343 343 344 345 345 345 344 344 345 345 346 348 348 349 350 352 352 349 348 351 352 351 352 355 356 359 2 3 1 360 3 7 6 4 357 335 316 307 304 302 293 283 275 270 267 263 261 255 248 252 258 256 255 261 265 264 255 244 247 249 245 245 245 242 243 242 242 244 246 247 247 247 246 244
337 337 336 336 335 334 334 334 335 336 337 339 340 341 341 342 343 344 344 343 343 342 342 343 344 345 346 346 347 348 350 349 346 347 349 347 347 348 350 352 355 359 359 356 357 360 1 3 0 348 328 310 301 300 297 292 283 275 271 267 265 262 257 256 262 262 260 260 263 265 257 237 234 241 234 237 241 239 239 240 238 239 241 244 246 247 247 246
334 334 333 333 333 332 332 332 333 335 337 338 339 339 341 342 343 345 345 343 343 342 341 341 341 342 343 344 345 345 346 347 346 345 346 346 344 342 344 347 348 351 354 354 354 355 354 353 356 355 344 330 318 301 288 285 282 278 277 274 269 268 265 262 264 266 264 262 262 264 258 237 223 237 232 232 239 239 238 240 238 236 236 238 241 244 246 246
329 328 328 329 330 331 331 331 331 333 335 336 337 338 341 343 344 345 346 345 344 343 342 341 342 342 342 342 342 342 342 344 344 344 343 343 341 339 338 341 343 344 347 348 349 352 353 349 348 353 351 341 334 324 305 290 282 277 278 277 272 270 269 267 268 269 268 266 265 266 260 244 230 242 243 238 243 245 245 245 244 239 234 234 237 239 242 244
328 327 326 327 328 329 329 329 331 333 335 336 336 337 340 342 343 344 345 346 345 345 344 343 344 344 343 342 341 339 339 339 339 340 340 339 338 336 334 335 337 337 339 342 342 345 349 347 342 343 345 339 335 331 321 312 302 290 283 279 275 272 270 268 269 270 271 271 270 269 265 253 241 246 251 248 249 253 253 251 250 247 240 236 234 236 240 243
331 329 328 327 328 328 328 330 332 334 336 337 336 336 337 339 342 343 345 346 346 346 345 344 344 346 345 344 342 339 337 337 336 335 336 336 336 333 330 330 331 331 332 334 335 337 341 342 337 337 337 331 328 324 315 313 313 304 292 285 281 279 276 273 271 270 273 275 272 271 272 262 248 247 253 253 253 256 257 255 252 250 249 245 239 236 240 244
333 331 330 330 330 330 330 331 333 334 336 335 335 335 335 337 339 341 343 345 346 345 344 343 344 345 346 345 343 341 338 336 334 332 332 332 331 330 328 327 327 328 328 328 329 331 335 335 331 329 331 326 322 317 308 305 305 302 297 291 287 286 284 282 279 277 277 277 271 269 276 271 257 253 256 256 254 255 255 256 254 251 252 254 250 243 238 240
332 331 331 331 331 331 330 331 332 332 333 333 332 333 334 336 337 339 341 343 344 344 343 343 343 343 343 343 342 340 338 337 334 331 330 329 327 326 325 324 324 324 323 322 323 325 328 329 324 323 325 323 319 314 306 302 301 299 299 296 292 292 290 288 287 284 283 283 276 269 272 273 267 262 260 258 258 256 253 254 255 252 251 255 257 252 243 238
332 331 330 328 328 328 329 329 330 330 331 331 331 332 334 335 336 338 340 341 343 344 343 343 342 341 341 341 340 338 337 337 336 332 329 327 323 321 321 319 319 319 319 318 318 319 322 323 320 320 322 321 314 308 305 304 304 302 301 300 297 295 292 289 287 284 283 287 286 278 275 274 273 270 264 260 260 260 257 256 256 254 253 253 256 256 253 247
332 330 328 327 326 326 327 328 328 329 330 330 331 331 333 334 335 337 339 340 341 342 342 343 342 340 339 338 338 338 337 337 335 332 330 327 323 319 318 317 316 315 315 314 315 315 316 317 315 315 319 321 312 304 303 304 305 305 304 301 298 295 292 290 287 284 281 282 283 284 284 281 277 275 271 264 262 262 262 260 259 258 256 255 255 255 256 255
332 330 328 326 324 325 327 328 328 329 329 328 329 330 331 333 334 335 337 337 338 340 340 342 342 340 337 336 336 337 338 336 335 332 330 328 325 321 319 317 315 313 312 311 311 311 311 312 312 310 313 317 311 304 303 303 303 305 304 299 294 291 289 289 287 285 283 281 280 282 284 282 276 274 274 272 268 267 266 264 262 261 259 257 256 255 254 255
330 329 327 325 324 324 325 326 327 327 326 326 327 327 328 330 331 332 334 335 335 337 338 339 341 339 337 336 336 337 337 336 334 332 330 328 326 323 321 318 315 313 312 310 309 308 307 308 308 306 308 311 306 303 303 303 303 304 300 294 292 290 288 286 285 284 283 281 280 279 280 279 276 273 273 273 270 269 269 269 267 265 263 261 259 257 256 254
Height
5732 5731 5731 5731 5731 5731 5730 5730 5730 5730 5730 5730 5730 5730 5730 5730 5730 5730 5730 5729 5729 5729 5729 5728 5728 5728 5727 5727 5727 5727 5727 5725 5725 5726 5726 5727 5728 5729 5730 5730 5731 5732 5734 5735 5736 5736 5737 5738 5739 5741 5744 5745 5746 5749 5748 5749 5752 5750 5751 5754 5758 5766 5772 5777 5782 5786 5792 5796 5796 5794 5793 5795 5797 5798 5802 5804 5805 5807 5809 5811 5814 5816 5816 5816 5818 5819 5818 5818
5727 5727 5727 5727 5727 5727 5727 5727 5727 5727 5727 5727 5727 5727 5726 5726 5726 5726 5725 5725 5725 5724 5724 5723 5723 5722 5722 5722 5721 5721 5720 5718 5719 5719 5719 5720 5721 5722 5723 5724 5725 5726 5728 5729 5730 5731 5732 5732 5733 5735 5738 5738 5740 5743 5741 5743 5745 5745 5748 5748 5753 5765 5771 5774 5778 5782 5787 5789 5790 5790 5789 5790 5793 5794 5797 5800 5801 5803 5806 5809 5812 5814 5815 5815 5817 5817 5816 5816
5723 5723 5723 5723 5723 5723 5723 5723 5723 5723 5723 5723 5723 5723 5722 5722 5722 5721 5721 5721 5720 5719 5719 5718 5718 5717 5717 5716 5715 5714 5713 5712 5711 5711 5712 5713 5714 5715 5715 5717 5717 5718 5721 5722 5724 5725 5726 5726 5725 5727 5731 5732 5735 5735 5736 5738 5738 5740 5741 5741 5752 5763 5766 5769 5773 5777 5782 5783 5783 5785 5785 5785 5788 5790 5791 5795 5797 5799 5803 5806 5809 5813 5813 5813 5814 5814 5814 5814
5719 5719 5719 5719 5719 5719 5719 5719 5719 5719 5719 5719 5719 5719 5718 5718 5718 5717 5717 5716 5715 5715 5714 5713 5713 5712 5711 5710 5709 5708 5707 5705 5704 5705 5705 5706 5706 5707 5707 5709 5709 5711 5713 5714 5717 5719 5720 5720 5719 5721 5723 5726 5729 5728 5731 5733 5731 5733 5733 5738 5753 5758 5759 5764 5766 5771 5776 5776 5776 5779 5780 5780 5783 5785 5786 5789 5792 5795 5800 5804 5807 5809 5809 5809 5811 5811 5812 5812
5716 5716 5716 5716 5716 5716 5716 5716 5716 5716 5716 5715 5715 5715 5714 5714 5714 5713 5713 5712 5711 5710 5709 5708 5707 5707 5705 5704 5702 5700 5700 5699 5698 5697 5697 5698 5698 5699 5699 5700 5702 5704 5706 5707 5709 5711 5712 5713 5713 5714 5715 5719 5721 5721 5726 5727 5723 5724 5729 5738 5748 5751 5754 5756 5758 5764 5770 5770 5770 5773 5775 5777 5778 5779 5782 5784 5787 5792 5796 5800 5802 5804 5804 5805 5807 5808 5809 5810
5713 5713 5713 5713 5713 5713 5713 5713 5713 5713 5713 5712 5712 5712 5711 5711 5710 5709 5708 5707 5707 5705 5704 5703 5702 5701 5699 5697 5695 5692 5692 5692 5690 5688 5688 5691 5690 5690 5690 5690 5693 5695 5697 5698 5700 5701 5704 5705 5706 5707 5709 5710 5712 5715 5719 5718 5715 5718 5726 5734 5740 5744 5745 5747 5751 5757 5761 5764 5765 5768 5771 5773 5773 5774 5777 5779 5783 5788 5792 5795 5797 5798 5799 5801 5804 5806 5807 5809
5710 5710 5710 5710 5710 5710 5710 5710 5710 5710 5710 5709 5709 5709 5708 5707 5706 5706 5705 5704 5703 5701 5700 5698 5696 5695 5693 5691 5688 5685 5685 5684 5681 5679 5681 5682 5680 5680 5681 5681 5682 5685 5687 5689 5690 5692 5694 5697 5698 5699 5699 5701 5705 5709 5710 5709 5709 5713 5721 5729 5734 5736 5736 5740 5746 5748 5753 5758 5761 5762 5763 5767 5768 5768 5771 5775 5779 5783 5787 5791 5793 5795 5796 5797 5801 5804 5806 5809
5708 5708 5708 5708 5708 5708 5708 5708 5708 5707 5707 5707 5706 5705 5705 5704 5703 5702 5701 5700 5699 5697 5695 5693 5691 5689 5687 5685 5682 5679 5678 5676 5672 5670 5671 5670 5670 5670 5670 5670 5671 5674 5676 5677 5680 5681 5683 5687 5689 5689 5690 5694 5698 5699 5701 5701 5702 5708 5718 5724 5725 5726 5729 5733 5736 5739 5745 5751 5754 5754 5755 5761 5764 5763 5765 5771 5776 5779 5782 5786 5789 5792 5793 5794 5799 5803 5805 5807
5706 5706 5706 5706 5706 5706 5705 5705 5705 5705 5704 5703 5703 5702 5701 5700 5699 5698 5698 5696 5695 5693 5690 5688 5685 5682 5680 5677 5675 5672 5669 5666 5663 5661 5660 5659 5659 5658 5657 5659 5660 5663 5664 5665 5668 5670 5673 5676 5678 5679 5680 5686 5688 5690 5692 5692 5696 5705 5713 5715 5715 5719 5720 5721 5727 5732 5737 5742 5745 5746 5750 5756 5759 5757 5759 5767 5772 5774 5777 5781 5785 5787 5790 5792 5795 5800 5802 5804
5704 5704 5704 5704 5704 5703 5703 5703 5702 5702 5701 5700 5700 5699 5698 5697 5696 5695 5693 5692 5690 5687 5684 5682 5679 5676 5672 5669 5668 5664 5659 5656 5653 5650 5649 5648 5648 5645 5644 5646 5648 5651 5651 5653 5655 5658 5661 5663 5666 5668 5670 5675 5678 5682 5683 5684 5693 5699 5702 5705 5707 5709 5709 5711 5719 5724 5728 5733 5737 5740 5745 5750 5752 5750 5753 5765 5769 5770 5773 5776 5780 5783 5786 5788 5791 5795 5798 5800
5702 5702 5702 5702 5701 5701 5701 5700 5700 5699 5698 5697 5696 5695 5694 5693 5692 5691 5689 5687 5684 5681 5678 5676 5672 5668 5664 5660 5658 5655 5650 5646 5642 5639 5637 5637 5636 5633 5631 5632 5633 5636 5637 5640 5641 5643 5647 5651 5655 5656 5660 5664 5668 5673 5673 5678 5687 5690 5691 5695 5698 5700 5701 5705 5712 5717 5720 5725 5730 5736 5739 5740 5741 5742 5751 5763 5765 5767 5769 5772 5776 5778 5781 5784 5787 5791 5794 5796
5700 5700 5700 5700 5699 5699 5699 5698 5697 5696 5695 5694 5693 5692 5690 5689 5688 5686 5684 5682 5678 5675 5673 5670 5666 5661 5657 5652 5649 5645 5641 5636 5632 5629 5626 5624 5623 5620 5618 5618 5619 5620 5623 5627 5627 5627 5632 5638 5642 5644 5649 5653 5656 5661 5664 5671 5678 5680 5681 5684 5690 5693 5694 5698 5705 5710 5713 5718 5726 5729 5727 5726 5732 5740 5752 5760 5761 5762 5764 5766 5770 5773 5777 5780 5783 5787 5790 5792
5699 5698 5698 5698 5697 5697 5696 5696 5695 5694 5692 5691 5690 5688 5686 5685 5684 5682 5680 5677 5673 5670 5667 5664 5660 5655 5651 5645 5640 5636 5631 5625 5622 5618 5613 5612 5610 5606 5604 5604 5605 5605 5608 5612 5612 5612 5617 5623 5627 5631 5636 5640 5645 5649 5654 5663 5667 5670 5672 5674 5681 5681 5684 5695 5700 5703 5706 5713 5720 5718 5714 5718 5731 5742 5751 5756 5757 5756 5758 5762 5766 5769 5772 5775 5779 5783 5786 5788
5697 5697 5697 5696 5696 5695 5694 5693 5692 5691 5689 5688 5686 5685 5683 5681 5680 5678 5676 5672 5669 5666 5662 5659 5654 5649 5644 5638 5632 5626 5620 5615 5610 5606 5601 5600 5599 5594 5591 5591 5592 5592 5595 5598 5599 5599 5603 5608 5612 5618 5624 5628 5634 5637 5643 5652 5656 5660 5662 5665 5670 5669 5680 5694 5694 5696 5701 5708 5713 5708 5704 5714 5731 5740 5746 5751 5750 5751 5754 5758 5762 5765 5768 5771 5774 5778 5781 5784
5696 5696 5695 5695 5694 5693 5692 5691 5690 5688 5686 5685 5683 5681 5679 5677 5676 5674 5672 5669 5665 5662 5658 5654 5649 5643 5637 5631 5624 5617 5611 5605 5600 5596 5593 5591 5590 5587 5584 5582 5582 5582 5584 5585 5587 5588 5590 5595 5599 5606 5613 5617 5622 5625 5631 5639 5644 5649 5650 5655 5661 5664 5677 5687 5687 5690 5696 5703 5703 5696 5696 5711 5727 5734 5741 5745 5743 5745 5749 5752 5757 5760 5763 5766 5769 5773 5777 5780
5695 5694 5694 5693 5692 5691 5690 5689 5687 5686 5684 5682 5680 5678 5676 5674 5673 5671 5668 5665 5662 5658 5654 5649 5644 5638 5632 5625 5618 5610 5603 5598 5595 5590 5587 5585 5584 5581 5579 5577 5575 5574 5576 5576 5577 5579 5580 5584 5589 5595 5600 5605 5610 5616 5621 5625 5631 5637 5641 5649 5655 5659 5670 5678 5681 5685 5689 5695 5691 5686 5692 5707 5721 5728 5735 5737 5735 5740 5743 5747 5752 5755 5758 5761 5764 5768 5772 5775
5694 5693 5692 5691 5691 5689 5688 5686 5685 5683 5681 5680 5678 5676 5673 5671 5670 5668 5665 5662 5658 5654 5650 5645 5640 5635 5629 5620 5613 5605 5599 5595 5592 5588 5584 5582 5580 5577 5575 5574 5572 5569 5569 5570 5570 5571 5572 5575 5580 5584 5589 5595 5601 5607 5610 5612 5619 5628 5634 5642 5649 5655 5661 5670 5677 5678 5681 5685 5682 5681 5688 5701 5715 5720 5726 5729 5728 5733 5737 5742 5746 5749 5753 5756 5759 5763 5767 5771
5693 5692 5691 5690 5689 5688 5686 5685 5683 5681 5679 5678 5676 5673 5670 5668 5666 5665 5662 5659 5655 5651 5647 5643 5638 5632 5624 5615 5607 5599 5594 5592 5590 5586 5583 5580 5577 5575 5572 5570 5569 5566 5565 5565 5565 5565 5566 5569 5572 5575 5580 5587 5593 5597 5599 5604 5614 5622 5628 5635 5644 5649 5653 5662 5668 5667 5672 5675 5673 5675 5679 5693 5707 5710 5715 5721 5722 5724 5731 5736 5740 5743 5747 5750 5754 5757 5761 5766
5692 5691 5690 5689 5688 5686 5685 5683 5681 5679 5677 5675 5674 5671 5668 5665 5663 5662 5659 5656 5652 5648 5644 5640 5633 5626 5618 5609 5602 5594 5589 5587 5587 5584 5581 5579 5575 5572 5570 5567 5566 5564 5563 5562 5561 5561 5561 5563 5566 5568 5574 5580 5587 5591 5594 5600 5608 5614 5620 5626 5632 5636 5641 5651 5654 5655 5662 5662 5660 5665 5671 5684 5697 5700 5706 5713 5714 5717 5723 5729 5732 5736 5741 5745 5749 5752 5756 5760
5691 5690 5689 5688 5686 5685 5683 5681 5680 5678 5675 5674 5672 5669 5666 5664 5661 5658 5656 5653 5650 5646 5641 5635 5629 5622 5615 5606 5599 5593 5588 5585 5584 5582 5580 5577 5574 5570 5567 5565 5563 5562 5560 5559 5558 5558 5559 5560 5561 5565 5570 5576 5582 5587 5590 5596 5601 5606 5611 5614 5618 5623 5631 5640 5642 5645 5651 5650 5651 5660 5666 5676 5687 5693 5698 5704 5707 5710 5716 5721 5725 5730 5735 5739 5744 5748 5752 5756
5689 5688 5687 5686 5685 5684 5682 5680 5678 5676 5674 5672 5670 5667 5665 5662 5659 5656 5654 5651 5647 5642 5637 5632 5625 5619 5612 5603 5596 5592 5590 5586 5583 5581 5578 5575 5572 5569 5565 5563 5561 5560 5558 5556 5556 5556 5556 5556 5559 5563 5567 5573 5579 5585 5588 5593 5596 5599 5603 5606 5609 5614 5623 5631 5633 5636 5640 5641 5646 5655 5661 5669 5680 5687 5689 5694 5700 5703 5709 5715 5719 5725 5729 5732 5738 5743 5747 5752
5688 5687 5686 5685 5684 5682 5680 5678 5676 5674 5672 5670 5668 5666 5663 5661 5658 5654 5651 5648 5644 5639 5634 5629 5623 5616 5609 5602 5594 5590 5588 5586 5583 5580 5577 5574 5570 5567 5565 5562 5560 5558 5556 5555 5554 5554 5554 5555 5557 5560 5564 5571 5576 5582 5586 5590 5593 5595 5598 5601 5604 5609 5617 5624 5628 5629 5630 5633 5641 5649 5654 5662 5672 5678 5679 5684 5692 5696 5701 5707 5713 5717 5722 5726 5731 5737 5742 5747
5686 5685 5684 5683 5682 5681 5679 5677 5675 5673 5671 5668 5666 5664 5661 5658 5656 5652 5649 5645 5642 5637 5632 5627 5622 5616 5609 5603 5595 5589 5585 5584 5583 5580 5577 5573 5570 5567 5564 5562 5559 5557 5555 5554 5554 5554 5554 5555 5558 5560 5564 5569 5574 5580 5584 5588 5591 5592 5595 5597 5602 5607 5612 5618 5623 5624 5624 5627 5635 5642 5646 5654 5663 5667 5670 5676 5684 5689 5692 5698 5705 5710 5715 5721 5727 5732 5736 5741
5685 5684 5683 5682 5680 5679 5677 5675 5673 5671 5669 5667 5664 5662 5659 5657 5654 5651 5647 5643 5640 5636 5631 5626 5621 5615 5609 5603 5596 5589 5585 5583 5581 5578 5575 5573 5570 5567 5564 5562 5560 5558 5556 5554 5554 5554 5555 5555 5557 5559 5564 5569 5573 5579 5583 5587 5588 5590 5593 5595 5599 5605 5607 5612 5617 5617 5619 5622 5628 5635 5639 5645 5654 5659 5664 5671 5677 5681 5684 5690 5698 5704 5710 5716 5721 5725 5730 5734
5684 5683 5681 5680 5679 5677 5676 5674 5672 5669 5667 5665 5663 5660 5658 5655 5652 5649 5646 5642 5638 5634 5630 5626 5621 5615 5609 5603 5596 5589 5584 5582 5580 5577 5575 5572 5569 5567 5564 5562 5560 5558 5557 5556 5555 5555 5555 5554 5555 5556 5560 5566 5572 5577 5582 5584 5585 5588 5591 5592 5596 5600 5602 5606 5610 5612 5615 5616 5620 5628 5631 5637 5648 5653 5658 5664 5669 5674 5679 5685 5691 5699 5705 5709 5714 5720 5725 5729
5683 5682 5680 5679 5677 5676 5674 5672 5670 5668 5666 5664 5662 5659 5657 5654 5651 5648 5644 5641 5637 5634 5630 5625 5620 5616 5610 5604 5598 5591 5586 5581 5579 5577 5574 5572 5569 5567 5565 5563 5561 5559 5558 5557 5556 5556 5556 5555 5556 5556 5559 5564 5568 5573 5578 5580 5581 5583 5587 5590 5592 5596 5598 5601 5605 5607 5609 5612 5618 5623 5625 5631 5641 5646 5651 5656 5662 5668 5674 5680 5686 5693 5698 5703 5709 5715 5721 5725
5682 5681 5679 5678 5676 5674 5673 5671 5669 5667 5665 5663 5660 5658 5656 5653 5650 5646 5643 5640 5637 5633 5628 5624 5619 5614 5610 5604 5598 5592 5587 5583 5579 5577 5575 5572 5570 5567 5565 5563 5562 5560 5559 5559 5558 5557 5557 5556 5557 5557 5559 5563 5566 5570 5574 5577 5579 5580 5584 5588 5590 5593 5595 5598 5601 5602 5603 5609 5615 5617 5620 5625 5631 5638 5646 5650 5655 5662 5668 5674 5681 5687 5693 5699 5705 5711 5716 5720
5681 5680 5678 5677 5675 5673 5672 5670 5668 5666 5663 5661 5659 5657 5654 5652 5649 5645 5642 5638 5635 5631 5627 5622 5618 5612 5606 5601 5596 5590 5585 5582 5580 5578 5575 5573 5570 5568 5566 5564 5563 5561 5560 5560 5559 5558 5558 5557 5558 5558 5559 5561 5563 5566 5570 5574 5577 5578 5582 5586 5588 5590 5592 5595 5597 5598 5601 5603 5607 5613 5617 5619 5624 5633 5641 5644 5648 5655 5661 5668 5676 5683 5689 5695 5700 5706 5710 5713
5680 5679 5677 5676 5674 5672 5670 5668 5666 5664 5662 5660 5658 5655 5653 5650 5648 5644 5641 5637 5633 5630 5626 5622 5617 5612 5605 5600 5595 5591 5587 5583 5580 5577 5575 5573 5571 5569 5567 5565 5564 5563 5562 5560 5559 5559 5559 5558 5559 5559 5560 5561 5563 5566 5569 5573 5576 5578 5580 5583 5586 5588 5590 5593 5594 5596 5597 5595 5601 5613 5617 5615 5620 5628 5636 5639 5642 5649 5656 5663 5671 5679 5684 5689 5694 5699 5703 5705
5679 5678 5676 5675 5673 5671 5669 5667 5665 5663 5661 5659 5657 5654 5652 5649 5647 5643 5640 5637 5633 5629 5625 5622 5617 5613 5608 5603 5598 5594 5590 5585 5580 5577 5575 5573 5572 5570 5568 5566 5565 5564 5563 5561 5560 5560 5560 5560 5560 5560 5562 5563 5565 5568 5570 5572 5575 5578 5580 5582 5584 5586 5589 5591 5592 5593 5592 5591 5600 5612 5616 5615 5616 5621 5630 5634 5636 5644 5651 5657 5665 5673 5678 5682 5687 5691 5695 5698
5679 5677 5676 5674 5672 5670 5668 5666 5664 5662 5660 5658 5656 5653 5651 5648 5645 5642 5639 5636 5632 5628 5624 5621 5617 5614 5610 5606 5602 5597 5592 5587 5583 5580 5577 5575 5574 5572 5571 5569 5567 5566 5564 5563 5561 5561 5561 5562 5562 5562 5564 5565 5566 5567 5568 5571 5574 5576 5578 5581 5583 5585 5587 5589 5590 5591 5590 5593 5601 5609 5613 5612 5608 5613 5624 5630 5634 5641 5647 5652 5660 5667 5672 5677 5681 5685 5689 5692
5678 5676 5675 5673 5671 5669 5667 5665 5663 5661 5659 5657 5655 5652 5650 5647 5644 5641 5638 5635 5632 5628 5624 5620 5617 5614 5610 5606 5602 5598 5594 5590 5586 5582 5579 5577 5575 5573 5571 5569 5567 5566 5566 5564 5563 5562 5563 5563 5564 5564 5565 5566 5566 5566 5567 5570 5573 5574 5576 5579 5582 5585 5586 5587 5588 5589 5590 5595 5600 5603 5606 5604 5603 5610 5619 5626 5634 5642 5646 5651 5657 5663 5668 5672 5676 5679 5682 5685
5678 5676 5674 5672 5670 5668 5666 5664 5662 5660 5658 5656 5654 5652 5649 5646 5644 5641 5638 5634 5631 5628 5624 5620 5616 5613 5610 5606 5602 5598 5595 5591 5587 5584 5580 5577 5574 5572 5570 5569 5568 5567 5566 5565 5564 5563 5564 5564 5565 5566 5566 5566 5567 5567 5567 5570 5572 5573 5575 5578 5582 5584 5585 5586 5588 5589 5591 5593 5596 5598 5599 5599 5603 5611 5616 5623 5632 5637 5642 5647 5651 5658 5663 5666 5670 5671 5673 5676
5677 5675 5674 5672 5670 5668 5666 5664 5662 5660 5658 5656 5653 5651 5648 5646 5643 5640 5637 5634 5630 5627 5624 5620 5616 5613 5609 5606 5603 5600 5596 5593 5589 5586 5582 5578 5576 5574 5572 5571 5570 5568 5567 5566 5566 5565 5564 5565 5565 5567 5567 5568 5568 5567 5567 5569 5571 5574 5575 5577 5581 5583 5584 5585 5586 5587 5588 5590 5592 5595 5596 5598 5605 5612 5615 5620 5624 5628 5632 5637 5641 5647 5653 5656 5658 5659 5660 5662
5677 5675 5673 5671 5669 5667 5665 5663 5661 5659 5657 5655 5653 5650 5648 5645 5643 5640 5637 5634 5631 5627 5624 5621 5617 5613 5609 5606 5603 5600 5597 5594 5591 5587 5584 5581 5578 5576 5574 5572 5571 5570 5569 5568 5567 5566 5565 5565 5566 5567 5568 5569 5569 5568 5568 5568 5571 5574 5575 5576 5580 5581 5581 5583 5585 5586 5586 5586 5589 5591 5593 5599 5607 5611 5611 5612 5615 5619 5622 5625 5630 5636 5641 5645 5647 5649 5650 5652
5676 5674 5673 5671 5669 5667 5665 5663 5661 5659 5657 5655 5652 5650 5647 5645 5642 5639 5636 5634 5631 5627 5624 5621 5618 5614 5610 5607 5603 5600 5598 5595 5592 5589 5585 5583 5580 5577 5575 5573 5572 5571 5569 5569 5568 5567 5567 5566 5566 5566 5567 5569 5569 5570 5570 5569 5570 5572 5572 5574 5577 5578 5580 5583 5584 5584 5584 5584 5587 5588 5591 5598 5604 5606 5606 5606 5609 5612 5614 5618 5624 5628 5633 5638 5640 5642 5644 5646
5675 5674 5672 5670 5668 5666 5664 5662 5660 5658 5656 5654 5652 5649 5647 5645 5642 5639 5636 5633 5630 5627 5624 5621 5618 5615 5612 5608 5604 5601 5598 5595 5593 5590 5587 5585 5582 5579 5576 5574 5573 5571 5570 5569 5569 5568 5568 5567 5567 5566 5567 5568 5569 5570 5571 5571 5571 5571 5572 5573 5574 5576 5580 5581 5581 5582 5582 5582 5585 5586 5588 5593 5597 5601 5602 5602 5603 5606 5610 5614 5617 5620 5625 5629 5632 5635 5637 5640
5674 5673 5671 5669 5667 5665 5663 5661 5659 5657 5655 5653 5651 5649 5646 5644 5641 5638 5635 5632 5629 5626 5624 5620 5618 5615 5612 5609 5605 5602 5599 5596 5593 5591 5589 5586 5584 5581 5578 5576 5574 5572 5571 5570 5569 5569 5569 5568 5567 5567 5567 5567 5568 5569 5570 5571 5571 5572 5573 5573 5574 5576 5578 5579 5579 5580 5579 5580 5582 5584 5586 5588 5591 5594 5597 5598 5599 5602 5606 5609 5611 5613 5616 5620 5624 5627 5630 5633
5674 5672 5670 5668 5666 5664 5663 5660 5658 5656 5654 5652 5650 5648 5646 5643 5641 5638 5634 5631 5628 5626 5623 5620 5617 5614 5612 5609 5606 5602 5599 5596 5594 5591 5589 5587 5585 5583 5580 5578 5575 5573 5572 5571 5570 5570 5569 5569 5568 5567 5567 5567 5568 5568 5569 5570 5571 5571 5572 5573 5574 5575 5576 5577 5578 5578 5578 5579 5579 5580 5583 5585 5586 5589 5593 5595 5596 5598 5601 5604 5606 5607 5609 5612 5616 5619 5622 5625
5672 5671 5669 5667 5665 5663 5661 5659 5657 5655 5653 5651 5648 5646 5644 5642 5639 5636 5633 5630 5627 5625 5622 5620 5617 5614 5612 5609 5606 5603 5600 5597 5594 5592 5589 5587 5585 5583 5581 5580 5577 5575 5573 5572 5571 5570 5569 5569 5568 5567 5566 5566 5567 5567 5568 5568 5569 5570 5571 5573 5574 5574 5575 5575 5576 5576 5576 5577 5577 5577 5580 5583 5585 5587 5591 5592 5592 5595 5597 5599 5600 5601 5603 5605 5607 5609 5612 5615
5671 5669 5667 5665 5664 5662 5660 5658 5656 5654 5652 5649 5647 5645 5642 5640 5638 5635 5632 5629 5627 5624 5621 5619 5616 5614 5611 5609 5607 5604 5601 5598 5595 5593 5590 5587 5585 5584 5582 5580 5579 5577 5575 5573 5572 5571 5570 5569 5568 5567 5566 5566 5566 5566 5566 5567 5567 5568 5569 5569 5570 5571 5572 5572 5572 5573 5573 5574 5575 5575 5578 5583 5584 5585 5588 5588 5588 5591 5592 5593 5594 5594 5595 5596 5597 5599 5602 5605
5669 5668 5666 5664 5662 5660 5658 5656 5655 5653 5650 5648 5646 5644 5641 5638 5636 5633 5631 5628 5626 5623 5620 5618 5615 5613 5611 5608 5606 5604 5602 5599 5596 5593 5591 5588 5585 5583 5581 5580 5579 5578 5577 5575 5573 5571 5570 5569 5568 5567 5566 5566 5566 5565 5565 5565 5565 5565 5565 5566 5567 5567 5568 5568 5567 5568 5570 5571 5572 5573 5575 5581 5583 5582 5584 5584 5583 5586 5587 5586 5587 5588 5588 5589 5589 5590 5592 5595
5668 5666 5664 5662 5661 5659 5657 5655 5653 5651 5649 5647 5645 5642 5640 5637 5635 5632 5630 5627 5624 5622 5619 5617 5614 5612 5610 5607 5605 5603 5601 5599 5597 5594 5591 5589 5586 5583 5581 5579 5578 5577 5576 5575 5574 5572 5571 5569 5569 5568 5566 5565 5565 5564 5563 5563 5562 5563 5563 5563 5564 5564 5564 5565 5564 5564 5566 5568 5570 5569 5570 5577 5581 5578 5579 5579 5579 5581 5582 5581 5581 5581 5582 5582 5582 5583 5584 5586
5666 5664 5662 5661 5659 5657 5655 5653 5651 5650 5648 5646 5643 5641 5639 5637 5634 5631 5629 5626 5623 5620 5618 5615 5613 5611 5608 5606 5604 5601 5600 5598 5596 5594 5591 5589 5587 5583 5581 5579 5577 5576 5575 5574 5573 5573 5571 5570 5568 5568 5567 5565 5564 5563 5562 5561 5561 5561 5560 5560 5561 5561 5561 5562 5561 5560 5562 5564 5565 5563 5565 5575 5579 5576 5576 5577 5577 5577 5578 5576 5574 5575 5576 5576 5576 5577 5577 5578
5664 5662 5660 5658 5657 5655 5653 5651 5649 5648 5646 5645 5642 5640 5638 5636 5633 5630 5628 5625 5622 5619 5616 5614 5612 5610 5607 5605 5603 5600 5598 5596 5595 5594 5591 5589 5586 5583 5580 5579 5577 5575 5574 5572 5571 5571 5571 5570 5568 5567 5566 5565 5564 5563 5561 5560 5560 5560 5559 5557 5558 5558 5558 5558 5558 5557 5558 5558 5557 5558 5561 5569 5574 5574 5572 5573 5573 5571 5571 5569 5568 5568 5569 5569 5569 5570 5572 5573
5662 5660 5658 5657 5655 5653 5651 5650 5648 5646 5645 5643 5640 5638 5635 5633 5632 5629 5627 5624 5621 5618 5616 5613 5610 5609 5607 5604 5602 5600 5597 5595 5592 5591 5590 5588 5586 5583 5580 5578 5577 5575 5574 5572 5570 5569 5569 5569 5567 5565 5565 5564 5563 5563 5561 5559 5559 5559 5558 5557 5556 5556 5555 5555 5555 5555 5555 5550 5550 5556 5557 5558 5564 5568 5567 5568 5568 5564 5561 5561 5561 5561 5561 5563 5565 5568 5571 5572
5660 5658 5656 5655 5653 5652 5650 5648 5646 5645 5643 5641 5639 5637 5634 5631 5629 5627 5625 5623 5620 5617 5615 5612 5610 5608 5606 5603 5601 5599 5596 5594 5591 5589 5587 5586 5584 5582 5579 5576 5575 5574 5572 5571 5570 5568 5567 5567 5565 5564 5563 5562 5561 5560 5559 5558 5557 5557 5557 5556 5555 5554 5553 5553 5553 5552 5549 5544 5546 5555 5553 5546 5553 5561 5561 5560 5558 5553 5552 5553 5554 5556 5558 5560 5563 5566 5569 5568
5659 5657 5655 5653 5652 5650 5649 5647 5646 5644 5642 5640 5638 5635 5633 5630 5627 5625 5623 5621 5619 5616 5613 5611 5608 5606 5604 5602 5600 5597 5595 5593 5591 5588 5586 5584 5582 5581 5578 5575 5573 5572 5570 5568 5568 5567 5566 5566 5564 5562 5561 5561 5559 5557 5556 5555 5555 5555 5554 5553 5553 5553 5552 5551 5550 5549 5545 5541 5544 5549 5544 5539 5547 5554 5552 5548 5543 5543 5547 5548 5550 5554 5557 5557 5558 5560 5561 5559
5657 5655 5654 5652 5650 5649 5648 5646 5644 5642 5641 5639 5636 5634 5632 5629 5626 5624 5621 5619 5617 5615 5612 5610 5606 5603 5602 5600 5597 5595 5593 5591 5589 5587 5585 5583 5580 5578 5577 5575 5572 5570 5568 5566 5565 5564 5564 5564 5562 5560 5559 5559 5557 5555 5553 5552 5552 5552 5552 5551 5550 5549 5548 5547 5547 5545 5542 5540 5541 5541 5538 5540 5544 5541 5538 5539 5537 5538 5543 5544 5546 5550 5552 5551 5550 5550 5551 5551
5655 5654 5652 5650 5649 5647 5646 5644 5643 5641 5639 5637 5635 5633 5630 5628 5625 5622 5620 5617 5615 5613 5611 5609 5605 5601 5599 5597 5595 5593 5590 5588 5586 5584 5582 5581 5578 5576 5574 5573 5570 5568 5566 5563 5561 5560 5560 5560 5559 5557 5557 5557 5555 5552 5550 5549 5549 5549 5549 5547 5546 5545 5543 5542 5542 5540 5538 5537 5537 5535 5535 5540 5539 5529 5526 5533 5535 5533 5534 5537 5540 5542 5542 5541 5539 5540 5543 5546
5654 5652 5651 5649 5647 5646 5644 5643 5641 5639 5637 5635 5633 5631 5629 5627 5624 5620 5618 5615 5613 5611 5609 5607 5605 5601 5596 5594 5592 5590 5588 5586 5583 5581 5578 5577 5575 5573 5571 5569 5567 5565 5564 5562 5559 5557 5555 5555 5555 5553 5553 5554 5551 5548 5547 5546 5546 5546 5545 5543 5541 5540 5539 5538 5537 5535 5534 5532 5532 5531 5530 5532 5530 5524 5521 5527 5530 5527 5525 5527 5529 5530 5529 5529 5530 5532 5535 5538
5651 5650 5649 5647 5645 5644 5642 5641 5639 5637 5635 5633 5631 5629 5626 5625 5622 5619 5617 5613 5610 5608 5607 5605 5603 5600 5595 5592 5589 5588 5586 5584 5581 5579 5576 5573 5572 5570 5568 5566 5564 5561 5560 5558 5556 5554 5552 5551 5550 5548 5549 5550 5547 5544 5543 5543 5542 5542 5540 5538 5537 5536 5534 5534 5532 5530 5529 5527 5526 5526 5524 5523 5522 5519 5515 5517 5521 5522 5519 5518 5518 5518 5518 5520 5522 5523 5524 5527